Time,TemperatureF,DewpointF,PressureIn,WindDirection,WindDirectionDegrees,WindSpeedMPH,WindSpeedGustMPH,Humidity,HourlyPrecipIn,Conditions,Clouds,dailyrainin,SoftwareType,DateUTC
2013-07-17 00:04:00,75.2,69.5,30.31,NNW,338,0.4,0.7,82,0.00,,,0.00,WUHU216HW,2013-07-17 04:04:00,
2013-07-17 00:09:00,74.9,69.1,30.31,NW,315,0.0,0.4,82,0.00,,,0.00,WUHU216HW,2013-07-17 04:09:00,
2013-07-17 00:14:00,74.9,69.1,30.31,NW,315,0.0,0.0,82,0.00,,,0.00,WUHU216HW,2013-07-17 04:14:00,
2013-07-17 00:19:00,74.5,68.8,30.31,NW,315,0.4,0.4,82,0.00,,,0.00,WUHU216HW,2013-07-17 04:19:00,
2013-07-17 00:24:00,74.3,68.9,30.31,NW,315,0.0,0.4,83,0.00,,,0.00,WUHU216HW,2013-07-17 04:24:00,
2013-07-17 00:29:00,74.3,68.9,30.31,NW,315,0.0,0.2,83,0.00,,,0.00,WUHU216HW,2013-07-17 04:29:00,
2013-07-17 00:34:00,74.2,68.7,30.31,NW,315,0.0,0.0,83,0.00,,,0.00,WUHU216HW,2013-07-17 04:34:00,
2013-07-17 00:39:00,74.2,68.7,30.31,NW,315,0.0,0.0,83,0.00,,,0.00,WUHU216HW,2013-07-17 04:39:00,
2013-07-17 00:44:00,74.0,68.5,30.31,NW,315,0.0,0.4,83,0.00,,,0.00,WUHU216HW,2013-07-17 04:44:00,
2013-07-17 00:49:00,73.8,68.7,30.30,NW,315,0.0,0.4,84,0.00,,,0.00,WUHU216HW,2013-07-17 04:49:00,
2013-07-17 00:54:00,73.8,68.3,30.31,NW,315,0.0,0.0,83,0.00,,,0.00,WUHU216HW,2013-07-17 04:54:00,
2013-07-17 00:59:00,73.6,68.5,30.30,NW,315,0.0,0.0,84,0.00,,,0.00,WUHU216HW,2013-07-17 04:59:00,
2013-07-17 01:04:00,73.4,68.3,30.31,NW,315,0.0,0.0,84,0.00,,,0.00,WUHU216HW,2013-07-17 05:04:00,
2013-07-17 01:09:00,73.4,68.3,30.30,NW,315,0.0,0.0,84,0.00,,,0.00,WUHU216HW,2013-07-17 05:09:00,
2013-07-17 01:14:00,73.3,68.1,30.30,WNW,293,0.0,0.4,84,0.00,,,0.00,WUHU216HW,2013-07-17 05:14:00,
2013-07-17 01:19:00,73.3,68.1,30.30,NW,315,0.0,0.4,84,0.00,,,0.00,WUHU216HW,2013-07-17 05:19:00,
2013-07-17 01:24:00,73.1,68.0,30.30,NW,315,0.0,0.0,84,0.00,,,0.00,WUHU216HW,2013-07-17 05:24:00,
2013-07-17 01:29:00,72.9,67.8,30.30,NW,315,0.0,0.0,84,0.00,,,0.00,WUHU216HW,2013-07-17 05:29:00,
2013-07-17 01:34:00,72.7,67.6,30.30,North,0,0.2,0.2,84,0.00,,,0.00,WUHU216HW,2013-07-17 05:34:00,
2013-07-17 01:39:00,72.7,67.2,30.30,NNW,338,0.0,0.4,83,0.00,,,0.00,WUHU216HW,2013-07-17 05:39:00,
2013-07-17 01:44:00,72.7,67.6,30.29,NNW,338,0.0,0.4,84,0.00,,,0.00,WUHU216HW,2013-07-17 05:44:00,
2013-07-17 01:49:00,72.5,67.4,30.29,NNW,338,0.0,0.0,84,0.00,,,0.00,WUHU216HW,2013-07-17 05:49:00,
2013-07-17 01:54:00,72.4,67.2,30.29,NNW,338,0.0,0.0,84,0.00,,,0.00,WUHU216HW,2013-07-17 05:54:00,
2013-07-17 01:59:00,72.4,67.2,30.29,NNW,338,0.0,0.0,84,0.00,,,0.00,WUHU216HW,2013-07-17 05:59:00,
2013-07-17 02:04:00,72.2,67.1,30.29,NNW,338,0.0,0.0,84,0.00,,,0.00,WUHU216HW,2013-07-17 06:04:00,
2013-07-17 02:09:00,72.2,67.1,30.29,NW,315,0.0,0.4,84,0.00,,,0.00,WUHU216HW,2013-07-17 06:09:00,
2013-07-17 02:14:00,72.2,67.1,30.29,NW,315,0.0,0.4,84,0.00,,,0.00,WUHU216HW,2013-07-17 06:14:00,
2013-07-17 02:19:00,72.0,66.9,30.29,NW,315,0.0,0.0,84,0.00,,,0.00,WUHU216HW,2013-07-17 06:19:00,
2013-07-17 02:24:00,72.0,66.9,30.29,NW,315,0.0,0.0,84,0.00,,,0.00,WUHU216HW,2013-07-17 06:24:00,
2013-07-17 02:29:00,71.8,66.7,30.29,NW,315,0.0,0.0,84,0.00,,,0.00,WUHU216HW,2013-07-17 06:29:00,
2013-07-17 02:34:00,71.8,66.7,30.29,NW,315,0.0,0.0,84,0.00,,,0.00,WUHU216HW,2013-07-17 06:34:00,
2013-07-17 02:39:00,71.6,66.5,30.29,NW,315,0.0,0.0,84,0.00,,,0.00,WUHU216HW,2013-07-17 06:39:00,
2013-07-17 02:44:00,71.6,66.5,30.29,NW,315,0.0,0.0,84,0.00,,,0.00,WUHU216HW,2013-07-17 06:44:00,
2013-07-17 02:49:00,71.6,66.5,30.29,NW,315,0.0,0.0,84,0.00,,,0.00,WUHU216HW,2013-07-17 06:49:00,
2013-07-17 02:54:00,71.5,66.7,30.29,NW,315,0.0,0.0,85,0.00,,,0.00,WUHU216HW,2013-07-17 06:54:00,
2013-07-17 02:59:00,71.3,66.2,30.29,NW,315,0.0,0.0,84,0.00,,,0.00,WUHU216HW,2013-07-17 06:59:00,
2013-07-17 03:04:00,71.3,66.2,30.29,NW,315,0.0,0.0,84,0.00,,,0.00,WUHU216HW,2013-07-17 07:04:00,
2013-07-17 03:09:00,71.3,66.2,30.29,NW,315,0.0,0.0,84,0.00,,,0.00,WUHU216HW,2013-07-17 07:09:00,
2013-07-17 03:14:00,71.3,66.5,30.29,NW,315,0.0,0.0,85,0.00,,,0.00,WUHU216HW,2013-07-17 07:14:00,
2013-07-17 03:19:00,71.3,66.2,30.29,NW,315,0.0,0.0,84,0.00,,,0.00,WUHU216HW,2013-07-17 07:19:00,
2013-07-17 03:24:00,71.1,66.3,30.29,NW,315,0.0,0.0,85,0.00,,,0.00,WUHU216HW,2013-07-17 07:24:00,
2013-07-17 03:29:00,70.9,66.2,30.29,NW,315,0.0,0.0,85,0.00,,,0.00,WUHU216HW,2013-07-17 07:29:00,
2013-07-17 03:34:00,70.9,66.2,30.29,NW,315,0.0,0.0,85,0.00,,,0.00,WUHU216HW,2013-07-17 07:34:00,
2013-07-17 03:39:00,70.9,66.2,30.29,NW,315,0.0,0.0,85,0.00,,,0.00,WUHU216HW,2013-07-17 07:39:00,
2013-07-17 03:44:00,70.9,66.2,30.30,NW,315,0.0,0.0,85,0.00,,,0.00,WUHU216HW,2013-07-17 07:44:00,
2013-07-17 03:49:00,70.7,65.6,30.30,NW,315,0.0,0.0,84,0.00,,,0.00,WUHU216HW,2013-07-17 07:49:00,
2013-07-17 03:54:00,70.9,65.8,30.29,NW,315,0.0,0.0,84,0.00,,,0.00,WUHU216HW,2013-07-17 07:54:00,
2013-07-17 03:59:00,70.7,65.6,30.30,NW,315,0.0,0.0,84,0.00,,,0.00,WUHU216HW,2013-07-17 07:59:00,
2013-07-17 04:05:00,70.9,65.8,30.30,NW,315,0.0,0.0,84,0.00,,,0.00,WUHU216HW,2013-07-17 08:05:00,
2013-07-17 04:10:00,70.9,65.8,30.30,NW,315,0.0,0.0,84,0.00,,,0.00,WUHU216HW,2013-07-17 08:10:00,
2013-07-17 04:15:00,70.9,65.8,30.30,NW,315,0.0,0.0,84,0.00,,,0.00,WUHU216HW,2013-07-17 08:15:00,
2013-07-17 04:20:00,70.9,65.8,30.30,WNW,293,0.0,0.0,84,0.00,,,0.00,WUHU216HW,2013-07-17 08:20:00,
2013-07-17 04:25:00,70.9,65.8,30.30,WNW,293,0.0,0.0,84,0.00,,,0.00,WUHU216HW,2013-07-17 08:25:00,
2013-07-17 04:30:00,70.9,65.8,30.30,WNW,293,0.2,0.2,84,0.00,,,0.00,WUHU216HW,2013-07-17 08:30:00,
2013-07-17 04:35:00,70.9,65.8,30.30,West,270,0.2,0.4,84,0.00,,,0.00,WUHU216HW,2013-07-17 08:35:00,
2013-07-17 04:40:00,70.9,65.8,30.30,West,270,0.4,0.4,84,0.00,,,0.00,WUHU216HW,2013-07-17 08:40:00,
2013-07-17 04:45:00,70.9,65.8,30.31,West,270,0.2,0.4,84,0.00,,,0.00,WUHU216HW,2013-07-17 08:45:00,
2013-07-17 04:50:00,70.9,65.8,30.31,West,270,0.0,0.4,84,0.00,,,0.00,WUHU216HW,2013-07-17 08:50:00,
2013-07-17 04:55:00,70.7,65.6,30.30,West,270,0.0,0.2,84,0.00,,,0.00,WUHU216HW,2013-07-17 08:55:00,
2013-07-17 05:00:00,70.7,65.6,30.30,West,270,0.0,0.2,84,0.00,,,0.00,WUHU216HW,2013-07-17 09:00:00,
2013-07-17 05:05:00,70.7,65.6,30.30,West,270,0.0,0.0,84,0.00,,,0.00,WUHU216HW,2013-07-17 09:05:00,
2013-07-17 05:10:00,70.7,65.6,30.31,West,270,0.0,0.0,84,0.00,,,0.00,WUHU216HW,2013-07-17 09:10:00,
2013-07-17 05:15:00,70.7,65.6,30.31,West,270,0.0,0.0,84,0.00,,,0.00,WUHU216HW,2013-07-17 09:15:00,
2013-07-17 05:20:00,70.6,65.4,30.31,West,270,0.0,0.0,84,0.00,,,0.00,WUHU216HW,2013-07-17 09:20:00,
2013-07-17 05:25:00,70.6,65.4,30.31,West,270,0.0,0.0,84,0.00,,,0.00,WUHU216HW,2013-07-17 09:25:00,
2013-07-17 05:30:00,70.6,65.4,30.31,West,270,0.0,0.0,84,0.00,,,0.00,WUHU216HW,2013-07-17 09:30:00,
2013-07-17 05:35:00,70.6,65.4,30.31,West,270,0.0,0.0,84,0.00,,,0.00,WUHU216HW,2013-07-17 09:35:00,
2013-07-17 05:40:00,70.6,65.4,30.31,West,270,0.0,0.0,84,0.00,,,0.00,WUHU216HW,2013-07-17 09:40:00,
2013-07-17 05:45:00,70.4,65.3,30.31,West,270,0.0,0.0,84,0.00,,,0.00,WUHU216HW,2013-07-17 09:45:00,
2013-07-17 05:50:00,70.4,65.3,30.31,West,270,0.0,0.0,84,0.00,,,0.00,WUHU216HW,2013-07-17 09:50:00,
2013-07-17 05:55:00,70.4,65.3,30.31,West,270,0.0,0.0,84,0.00,,,0.00,WUHU216HW,2013-07-17 09:55:00,
2013-07-17 06:00:00,70.2,65.1,30.32,West,270,0.0,0.0,84,0.00,,,0.00,WUHU216HW,2013-07-17 10:00:00,
2013-07-17 06:05:00,70.4,65.3,30.32,West,270,0.0,0.0,84,0.00,,,0.00,WUHU216HW,2013-07-17 10:05:00,
2013-07-17 06:10:00,70.4,65.3,30.32,North,0,0.0,0.4,84,0.00,,,0.00,WUHU216HW,2013-07-17 10:10:00,
2013-07-17 06:15:00,70.6,65.4,30.32,North,0,0.0,0.4,84,0.00,,,0.00,WUHU216HW,2013-07-17 10:15:00,
2013-07-17 06:20:00,70.6,65.4,30.32,North,0,0.0,0.0,84,0.00,,,0.00,WUHU216HW,2013-07-17 10:20:00,
2013-07-17 06:25:00,70.6,65.4,30.32,NW,315,0.0,0.0,84,0.00,,,0.00,WUHU216HW,2013-07-17 10:25:00,
2013-07-17 06:30:00,70.6,65.1,30.32,NW,315,0.0,0.0,83,0.00,,,0.00,WUHU216HW,2013-07-17 10:30:00,
2013-07-17 06:35:00,70.6,65.4,30.32,NW,315,0.0,0.0,84,0.00,,,0.00,WUHU216HW,2013-07-17 10:35:00,
2013-07-17 06:40:00,70.6,65.4,30.32,ENE,68,0.0,0.4,84,0.00,,,0.00,WUHU216HW,2013-07-17 10:40:00,
2013-07-17 06:45:00,70.6,65.1,30.32,NE,45,0.0,0.4,83,0.00,,,0.00,WUHU216HW,2013-07-17 10:45:00,
2013-07-17 06:50:00,70.6,65.1,30.32,NE,45,0.0,0.0,83,0.00,,,0.00,WUHU216HW,2013-07-17 10:50:00,
2013-07-17 06:55:00,70.6,65.1,30.32,NE,45,0.0,0.0,83,0.00,,,0.00,WUHU216HW,2013-07-17 10:55:00,
2013-07-17 07:00:00,70.9,65.4,30.32,North,0,0.0,0.0,83,0.00,,,0.00,WUHU216HW,2013-07-17 11:00:00,
2013-07-17 07:05:00,70.9,65.4,30.32,North,0,0.0,0.0,83,0.00,,,0.00,WUHU216HW,2013-07-17 11:05:00,
2013-07-17 07:10:00,71.1,65.6,30.33,North,0,0.0,0.0,83,0.00,,,0.00,WUHU216HW,2013-07-17 11:10:00,
2013-07-17 07:15:00,71.3,65.8,30.32,North,0,0.0,0.0,83,0.00,,,0.00,WUHU216HW,2013-07-17 11:15:00,
2013-07-17 07:20:00,71.6,65.9,30.32,North,0,0.0,0.4,82,0.00,,,0.00,WUHU216HW,2013-07-17 11:20:00,
2013-07-17 07:25:00,72.5,66.8,30.32,North,0,0.0,0.4,82,0.00,,,0.00,WUHU216HW,2013-07-17 11:25:00,
2013-07-17 07:30:00,73.3,67.8,30.32,North,0,0.0,0.0,83,0.00,,,0.00,WUHU216HW,2013-07-17 11:30:00,
2013-07-17 07:35:00,74.3,68.6,30.32,North,0,0.0,0.0,82,0.00,,,0.00,WUHU216HW,2013-07-17 11:35:00,
2013-07-17 07:40:00,75.6,69.8,30.32,North,0,0.2,0.2,82,0.00,,,0.00,WUHU216HW,2013-07-17 11:40:00,
2013-07-17 07:45:00,76.7,70.4,30.32,NW,315,0.2,0.2,81,0.00,,,0.00,WUHU216HW,2013-07-17 11:45:00,
2013-07-17 07:50:00,76.1,69.9,30.32,West,270,0.0,0.4,81,0.00,,,0.00,WUHU216HW,2013-07-17 11:50:00,
2013-07-17 07:55:00,76.3,70.1,30.32,West,270,0.4,0.4,81,0.00,,,0.00,WUHU216HW,2013-07-17 11:55:00,
2013-07-17 08:00:00,76.5,70.3,30.32,North,0,0.4,0.4,81,0.00,,,0.00,WUHU216HW,2013-07-17 12:00:00,
2013-07-17 08:05:00,76.9,70.6,30.32,NW,315,0.2,0.4,81,0.00,,,0.00,WUHU216HW,2013-07-17 12:05:00,
2013-07-17 08:10:00,77.2,70.9,30.32,NW,315,0.0,0.2,81,0.00,,,0.00,WUHU216HW,2013-07-17 12:10:00,
2013-07-17 08:15:00,77.6,70.9,30.32,NW,315,0.0,0.2,80,0.00,,,0.00,WUHU216HW,2013-07-17 12:15:00,
2013-07-17 08:20:00,77.8,71.1,30.32,ENE,68,0.7,0.9,80,0.00,,,0.00,WUHU216HW,2013-07-17 12:20:00,
2013-07-17 08:25:00,78.3,71.6,30.33,NW,315,0.0,1.1,80,0.00,,,0.00,WUHU216HW,2013-07-17 12:25:00,
2013-07-17 08:30:00,79.2,72.2,30.33,NNW,338,0.0,1.1,79,0.00,,,0.00,WUHU216HW,2013-07-17 12:30:00,
2013-07-17 08:35:00,79.9,72.5,30.33,West,270,0.4,0.4,78,0.00,,,0.00,WUHU216HW,2013-07-17 12:35:00,
2013-07-17 08:40:00,80.1,72.6,30.33,NW,315,0.0,0.4,78,0.00,,,0.00,WUHU216HW,2013-07-17 12:40:00,
2013-07-17 08:45:00,80.5,73.0,30.33,North,0,0.4,1.1,78,0.00,,,0.00,WUHU216HW,2013-07-17 12:45:00,
2013-07-17 08:50:00,80.5,73.0,30.33,NNE,23,0.4,1.1,78,0.00,,,0.00,WUHU216HW,2013-07-17 12:50:00,
2013-07-17 08:55:00,80.6,73.2,30.32,WNW,293,0.4,1.1,78,0.00,,,0.00,WUHU216HW,2013-07-17 12:55:00,
2013-07-17 09:00:00,80.8,73.4,30.33,North,0,0.2,0.9,78,0.00,,,0.00,WUHU216HW,2013-07-17 13:00:00,
2013-07-17 09:05:00,81.2,73.7,30.32,North,0,0.0,0.9,78,0.00,,,0.00,WUHU216HW,2013-07-17 13:05:00,
2013-07-17 09:10:00,81.2,73.4,30.32,WNW,293,1.1,1.1,77,0.00,,,0.00,WUHU216HW,2013-07-17 13:10:00,
2013-07-17 09:15:00,81.7,74.3,30.32,WSW,248,0.7,1.1,78,0.00,,,0.00,WUHU216HW,2013-07-17 13:15:00,
2013-07-17 09:20:00,82.1,74.2,30.32,West,270,0.0,1.1,77,0.00,,,0.00,WUHU216HW,2013-07-17 13:20:00,
2013-07-17 09:25:00,82.3,74.3,30.32,North,0,0.0,0.7,77,0.00,,,0.00,WUHU216HW,2013-07-17 13:25:00,
2013-07-17 09:30:00,82.3,74.3,30.32,NNW,338,0.7,1.1,77,0.00,,,0.00,WUHU216HW,2013-07-17 13:30:00,
2013-07-17 09:35:00,82.4,74.5,30.32,NE,45,0.4,1.1,77,0.00,,,0.00,WUHU216HW,2013-07-17 13:35:00,
2013-07-17 09:40:00,83.3,75.3,30.31,ESE,113,0.7,0.9,77,0.00,,,0.00,WUHU216HW,2013-07-17 13:40:00,
2013-07-17 09:45:00,85.0,76.5,30.32,NW,315,0.4,1.1,76,0.00,,,0.00,WUHU216HW,2013-07-17 13:45:00,
2013-07-17 09:50:00,86.8,78.0,30.31,SSE,158,0.0,1.1,75,0.00,,,0.00,WUHU216HW,2013-07-17 13:50:00,
2013-07-17 09:55:00,86.8,76.7,30.32,South,180,1.3,1.3,72,0.00,,,0.00,WUHU216HW,2013-07-17 13:55:00,
2013-07-17 10:00:00,88.6,78.0,30.32,SW,225,0.9,1.3,71,0.00,,,0.00,WUHU216HW,2013-07-17 14:00:00,
2013-07-17 10:05:00,88.2,77.2,30.31,SE,135,0.0,1.1,70,0.00,,,0.00,WUHU216HW,2013-07-17 14:05:00,
2013-07-17 10:10:00,87.3,76.4,30.31,North,0,0.0,1.1,70,0.00,,,0.00,WUHU216HW,2013-07-17 14:10:00,
2013-07-17 10:15:00,86.4,76.3,30.31,SSW,203,0.9,1.1,72,0.00,,,0.00,WUHU216HW,2013-07-17 14:15:00,
2013-07-17 10:20:00,86.0,76.1,30.31,WSW,248,0.7,1.8,72,0.00,,,0.00,WUHU216HW,2013-07-17 14:20:00,
2013-07-17 10:25:00,85.3,75.3,30.31,WNW,293,0.0,1.8,72,0.00,,,0.00,WUHU216HW,2013-07-17 14:25:00,
2013-07-17 10:30:00,86.0,76.1,30.31,WSW,248,1.8,1.8,72,0.00,,,0.00,WUHU216HW,2013-07-17 14:30:00,
2013-07-17 10:35:00,86.6,75.2,30.31,East,90,0.2,1.8,69,0.00,,,0.00,WUHU216HW,2013-07-17 14:35:00,
2013-07-17 10:40:00,89.3,77.9,30.31,ENE,68,0.7,1.8,69,0.00,,,0.00,WUHU216HW,2013-07-17 14:40:00,
2013-07-17 10:45:00,92.2,80.1,30.31,East,90,0.9,1.3,68,0.00,,,0.00,WUHU216HW,2013-07-17 14:45:00,
2013-07-17 10:50:00,93.1,78.1,30.31,SE,135,0.4,1.3,62,0.00,,,0.00,WUHU216HW,2013-07-17 14:50:00,
2013-07-17 10:55:00,92.2,75.3,30.31,ESE,113,1.1,1.1,58,0.00,,,0.00,WUHU216HW,2013-07-17 14:55:00,
2013-07-17 11:00:00,92.3,77.0,30.31,SE,135,0.4,1.6,61,0.00,,,0.00,WUHU216HW,2013-07-17 15:00:00,
2013-07-17 11:05:00,92.7,76.3,30.31,ESE,113,1.6,1.6,59,0.00,,,0.00,WUHU216HW,2013-07-17 15:05:00,
2013-07-17 11:10:00,93.1,79.1,30.31,ESE,113,0.7,1.6,64,0.00,,,0.00,WUHU216HW,2013-07-17 15:10:00,
2013-07-17 11:16:00,93.4,78.0,30.31,ESE,113,1.1,1.6,61,0.00,,,0.00,WUHU216HW,2013-07-17 15:16:00,
2013-07-17 11:21:00,94.1,79.1,30.31,SW,225,1.1,1.6,62,0.00,,,0.00,WUHU216HW,2013-07-17 15:21:00,
2013-07-17 11:26:00,94.0,78.0,30.31,East,90,1.1,1.8,60,0.00,,,0.00,WUHU216HW,2013-07-17 15:26:00,
2013-07-17 11:31:00,94.1,78.7,30.31,ENE,68,0.9,2.0,61,0.00,,,0.00,WUHU216HW,2013-07-17 15:31:00,
2013-07-17 11:36:00,93.8,76.8,30.31,East,90,1.1,2.0,58,0.00,,,0.00,WUHU216HW,2013-07-17 15:36:00,
2013-07-17 11:41:00,94.0,78.0,30.31,ESE,113,1.1,1.8,60,0.00,,,0.00,WUHU216HW,2013-07-17 15:41:00,
2013-07-17 11:46:00,94.0,78.0,30.31,ESE,113,1.1,1.8,60,0.00,,,0.00,WUHU216HW,2013-07-17 15:46:00,
2013-07-17 11:51:00,94.5,78.6,30.31,ENE,68,1.1,1.6,60,0.00,,,0.00,WUHU216HW,2013-07-17 15:51:00,
2013-07-17 11:56:00,93.4,76.4,30.31,SSW,203,2.5,2.5,58,0.00,,,0.00,WUHU216HW,2013-07-17 15:56:00,
2013-07-17 12:01:00,91.8,76.9,30.31,South,180,0.0,2.5,62,0.00,,,0.00,WUHU216HW,2013-07-17 16:01:00,
2013-07-17 12:06:00,90.0,76.7,30.31,NE,45,1.3,1.3,65,0.00,,,0.00,WUHU216HW,2013-07-17 16:06:00,
2013-07-17 12:11:00,91.1,77.6,30.31,East,90,0.9,1.3,65,0.00,,,0.00,WUHU216HW,2013-07-17 16:11:00,
2013-07-17 12:16:00,91.6,77.7,30.31,SSE,158,0.2,1.6,64,0.00,,,0.00,WUHU216HW,2013-07-17 16:16:00,
2013-07-17 12:21:00,91.3,76.4,30.31,NNE,23,0.4,1.6,62,0.00,,,0.00,WUHU216HW,2013-07-17 16:21:00,
2013-07-17 12:26:00,90.9,77.0,30.30,ESE,113,0.4,0.7,64,0.00,,,0.00,WUHU216HW,2013-07-17 16:26:00,
2013-07-17 12:31:00,90.4,76.5,30.30,East,90,0.7,0.9,64,0.00,,,0.00,WUHU216HW,2013-07-17 16:31:00,
2013-07-17 12:36:00,90.2,77.3,30.30,SE,135,0.4,0.9,66,0.00,,,0.00,WUHU216HW,2013-07-17 16:36:00,
2013-07-17 12:41:00,89.6,77.2,30.30,SSE,158,0.0,0.9,67,0.00,,,0.00,WUHU216HW,2013-07-17 16:41:00,
2013-07-17 12:46:00,88.2,76.3,30.30,SSW,203,0.4,0.7,68,0.00,,,0.00,WUHU216HW,2013-07-17 16:46:00,
2013-07-17 12:51:00,87.8,76.0,30.30,SW,225,1.1,1.1,68,0.00,,,0.00,WUHU216HW,2013-07-17 16:51:00,
2013-07-17 12:56:00,88.9,76.6,30.29,ENE,68,1.1,1.6,67,0.00,,,0.00,WUHU216HW,2013-07-17 16:56:00,
2013-07-17 13:01:00,88.9,75.2,30.29,East,90,1.8,1.8,64,0.00,,,0.00,WUHU216HW,2013-07-17 17:01:00,
2013-07-17 13:06:00,88.4,75.6,30.30,NE,45,0.4,1.8,66,0.00,,,0.00,WUHU216HW,2013-07-17 17:06:00,
2013-07-17 13:11:00,87.8,74.6,30.29,NNE,23,0.7,1.1,65,0.00,,,0.00,WUHU216HW,2013-07-17 17:11:00,
2013-07-17 13:16:00,87.1,74.9,30.29,North,0,0.0,0.7,67,0.00,,,0.00,WUHU216HW,2013-07-17 17:16:00,
2013-07-17 13:21:00,86.8,73.6,30.29,NE,45,1.1,1.1,65,0.00,,,0.00,WUHU216HW,2013-07-17 17:21:00,
2013-07-17 13:26:00,86.6,73.5,30.29,SE,135,1.1,1.1,65,0.00,,,0.00,WUHU216HW,2013-07-17 17:26:00,
2013-07-17 13:31:00,86.8,74.1,30.29,NNE,23,0.2,1.1,66,0.00,,,0.00,WUHU216HW,2013-07-17 17:31:00,
2013-07-17 13:36:00,86.8,74.5,30.29,South,180,1.1,1.1,67,0.00,,,0.00,WUHU216HW,2013-07-17 17:36:00,
2013-07-17 13:41:00,86.6,74.4,30.29,ENE,68,0.0,1.1,67,0.00,,,0.00,WUHU216HW,2013-07-17 17:41:00,
2013-07-17 13:46:00,86.4,74.2,30.29,NE,45,0.4,0.4,67,0.00,,,0.00,WUHU216HW,2013-07-17 17:46:00,
2013-07-17 13:51:00,86.4,74.6,30.29,NE,45,0.0,0.4,68,0.00,,,0.00,WUHU216HW,2013-07-17 17:51:00,
2013-07-17 13:56:00,86.4,74.6,30.28,ESE,113,0.0,0.4,68,0.00,,,0.00,WUHU216HW,2013-07-17 17:56:00,
2013-07-17 14:01:00,86.6,75.2,30.28,East,90,0.0,0.4,69,0.00,,,0.00,WUHU216HW,2013-07-17 18:01:00,
2013-07-17 14:06:00,87.1,75.8,30.28,East,90,0.0,0.4,69,0.00,,,0.00,WUHU216HW,2013-07-17 18:06:00,
2013-07-17 14:11:00,87.3,76.0,30.28,ESE,113,0.0,0.4,69,0.00,,,0.00,WUHU216HW,2013-07-17 18:11:00,
2013-07-17 14:16:00,87.7,75.8,30.28,ESE,113,0.4,0.4,68,0.00,,,0.00,WUHU216HW,2013-07-17 18:16:00,
2013-07-17 14:21:00,87.7,76.2,30.28,NE,45,0.2,0.4,69,0.00,,,0.00,WUHU216HW,2013-07-17 18:21:00,
2013-07-17 14:26:00,87.7,75.8,30.27,NNE,23,0.2,0.4,68,0.00,,,0.00,WUHU216HW,2013-07-17 18:26:00,
2013-07-17 14:31:00,87.7,75.8,30.27,East,90,0.0,0.4,68,0.00,,,0.00,WUHU216HW,2013-07-17 18:31:00,
2013-07-17 14:36:00,88.0,74.4,30.27,SE,135,1.1,1.1,64,0.00,,,0.00,WUHU216HW,2013-07-17 18:36:00,
2013-07-17 14:41:00,88.0,75.7,30.27,NE,45,0.0,1.1,67,0.00,,,0.00,WUHU216HW,2013-07-17 18:41:00,
2013-07-17 14:46:00,87.8,75.5,30.26,NNW,338,0.0,0.9,67,0.00,,,0.00,WUHU216HW,2013-07-17 18:46:00,
2013-07-17 14:51:00,87.5,75.2,30.26,WNW,293,0.4,0.9,67,0.00,,,0.00,WUHU216HW,2013-07-17 18:51:00,
2013-07-17 14:56:00,87.5,75.2,30.26,NNW,338,0.2,1.8,67,0.00,,,0.00,WUHU216HW,2013-07-17 18:56:00,
2013-07-17 15:01:00,87.8,75.5,30.26,NNE,23,0.4,1.8,67,0.00,,,0.00,WUHU216HW,2013-07-17 19:01:00,
2013-07-17 15:06:00,88.2,75.4,30.26,NE,45,0.4,1.3,66,0.00,,,0.00,WUHU216HW,2013-07-17 19:06:00,
2013-07-17 15:11:00,88.4,76.1,30.25,SW,225,1.1,1.1,67,0.00,,,0.00,WUHU216HW,2013-07-17 19:11:00,
2013-07-17 15:16:00,88.2,75.0,30.25,NNE,23,1.6,1.8,65,0.00,,,0.00,WUHU216HW,2013-07-17 19:16:00,
2013-07-17 15:21:00,87.8,75.1,30.25,North,0,0.4,1.8,66,0.00,,,0.00,WUHU216HW,2013-07-17 19:21:00,
2013-07-17 15:26:00,87.7,74.9,30.25,North,0,0.0,1.8,66,0.00,,,0.00,WUHU216HW,2013-07-17 19:26:00,
2013-07-17 15:31:00,87.5,75.2,30.25,WNW,293,0.4,0.7,67,0.00,,,0.00,WUHU216HW,2013-07-17 19:31:00,
2013-07-17 15:36:00,87.3,75.0,30.25,SW,225,0.9,1.1,67,0.00,,,0.00,WUHU216HW,2013-07-17 19:36:00,
2013-07-17 15:41:00,87.5,75.2,30.25,NE,45,0.0,1.1,67,0.00,,,0.00,WUHU216HW,2013-07-17 19:41:00,
2013-07-17 15:46:00,87.7,75.3,30.24,North,0,0.4,1.1,67,0.00,,,0.00,WUHU216HW,2013-07-17 19:46:00,
2013-07-17 15:51:00,87.5,72.9,30.25,NNE,23,0.9,1.1,62,0.00,,,0.00,WUHU216HW,2013-07-17 19:51:00,
2013-07-17 15:56:00,87.3,74.5,30.24,NNE,23,0.4,1.1,66,0.00,,,0.00,WUHU216HW,2013-07-17 19:56:00,
2013-07-17 16:01:00,87.1,74.9,30.24,NE,45,0.0,1.1,67,0.00,,,0.00,WUHU216HW,2013-07-17 20:01:00,
2013-07-17 16:06:00,86.9,74.7,30.24,North,0,0.0,0.7,67,0.00,,,0.00,WUHU216HW,2013-07-17 20:06:00,
2013-07-17 16:11:00,86.9,74.7,30.24,NNE,23,0.0,0.4,67,0.00,,,0.00,WUHU216HW,2013-07-17 20:11:00,
2013-07-17 16:16:00,86.9,74.7,30.24,NNE,23,0.0,0.2,67,0.00,,,0.00,WUHU216HW,2013-07-17 20:16:00,
2013-07-17 16:21:00,86.8,74.5,30.24,NE,45,0.0,0.4,67,0.00,,,0.00,WUHU216HW,2013-07-17 20:21:00,
2013-07-17 16:26:00,86.8,74.5,30.23,North,0,0.0,0.4,67,0.00,,,0.00,WUHU216HW,2013-07-17 20:26:00,
2013-07-17 16:31:00,86.8,75.0,30.23,NE,45,0.0,0.4,68,0.00,,,0.00,WUHU216HW,2013-07-17 20:31:00,
2013-07-17 16:36:00,86.6,74.8,30.23,NNE,23,0.0,0.0,68,0.00,,,0.00,WUHU216HW,2013-07-17 20:36:00,
2013-07-17 16:41:00,86.8,75.0,30.23,ENE,68,0.0,0.0,68,0.00,,,0.00,WUHU216HW,2013-07-17 20:41:00,
2013-07-17 16:46:00,86.6,74.8,30.23,NNE,23,0.2,0.7,68,0.00,,,0.00,WUHU216HW,2013-07-17 20:46:00,
2013-07-17 16:51:00,86.8,75.0,30.23,ENE,68,0.4,0.7,68,0.00,,,0.00,WUHU216HW,2013-07-17 20:51:00,
2013-07-17 16:56:00,86.8,74.5,30.23,ENE,68,0.4,0.4,67,0.00,,,0.00,WUHU216HW,2013-07-17 20:56:00,
2013-07-17 17:01:00,86.8,75.0,30.23,East,90,0.0,0.4,68,0.00,,,0.00,WUHU216HW,2013-07-17 21:01:00,
2013-07-17 17:06:00,86.8,75.0,30.23,NE,45,0.2,0.4,68,0.00,,,0.00,WUHU216HW,2013-07-17 21:06:00,
2013-07-17 17:11:00,86.8,75.0,30.23,NE,45,0.0,0.4,68,0.00,,,0.00,WUHU216HW,2013-07-17 21:11:00,
2013-07-17 17:16:00,86.8,75.0,30.22,NNE,23,0.0,0.4,68,0.00,,,0.00,WUHU216HW,2013-07-17 21:16:00,
2013-07-17 17:21:00,86.8,75.0,30.22,NNE,23,0.0,0.4,68,0.00,,,0.00,WUHU216HW,2013-07-17 21:21:00,
2013-07-17 17:26:00,86.8,75.0,30.22,North,0,0.0,0.4,68,0.00,,,0.00,WUHU216HW,2013-07-17 21:26:00,
2013-07-17 17:31:00,86.8,75.0,30.22,North,0,0.0,0.4,68,0.00,,,0.00,WUHU216HW,2013-07-17 21:31:00,
2013-07-17 17:36:00,86.8,75.4,30.21,NNE,23,0.0,0.4,69,0.00,,,0.00,WUHU216HW,2013-07-17 21:36:00,
2013-07-17 17:41:00,86.6,74.8,30.22,NNE,23,0.0,0.7,68,0.00,,,0.00,WUHU216HW,2013-07-17 21:41:00,
2013-07-17 17:46:00,86.6,74.4,30.22,NNE,23,0.2,0.7,67,0.00,,,0.00,WUHU216HW,2013-07-17 21:46:00,
2013-07-17 17:51:00,86.6,74.8,30.21,NE,45,0.0,0.2,68,0.00,,,0.00,WUHU216HW,2013-07-17 21:51:00,
2013-07-17 17:56:00,86.4,75.1,30.21,NE,45,0.0,0.0,69,0.00,,,0.00,WUHU216HW,2013-07-17 21:56:00,
2013-07-17 18:01:00,86.2,75.0,30.21,NE,45,0.0,0.4,69,0.00,,,0.00,WUHU216HW,2013-07-17 22:01:00,
2013-07-17 18:06:00,86.0,74.8,30.21,NE,45,0.0,0.4,69,0.00,,,0.00,WUHU216HW,2013-07-17 22:06:00,
2013-07-17 18:11:00,86.2,75.0,30.21,NE,45,0.0,0.0,69,0.00,,,0.00,WUHU216HW,2013-07-17 22:11:00,
2013-07-17 18:16:00,86.2,75.0,30.21,NE,45,0.0,0.0,69,0.00,,,0.00,WUHU216HW,2013-07-17 22:16:00,
2013-07-17 18:21:00,86.0,74.8,30.21,NE,45,0.0,0.0,69,0.00,,,0.00,WUHU216HW,2013-07-17 22:21:00,
2013-07-17 18:26:00,86.2,75.0,30.21,NE,45,0.0,0.0,69,0.00,,,0.00,WUHU216HW,2013-07-17 22:26:00,
2013-07-17 18:31:00,86.8,75.4,30.21,NE,45,0.0,0.0,69,0.00,,,0.00,WUHU216HW,2013-07-17 22:31:00,
2013-07-17 18:36:00,87.1,75.8,30.20,NE,45,0.0,0.0,69,0.00,,,0.00,WUHU216HW,2013-07-17 22:36:00,
2013-07-17 18:41:00,87.3,75.4,30.20,NE,45,0.0,0.0,68,0.00,,,0.00,WUHU216HW,2013-07-17 22:41:00,
2013-07-17 18:46:00,86.9,75.6,30.20,NE,45,0.0,0.0,69,0.00,,,0.00,WUHU216HW,2013-07-17 22:46:00,
2013-07-17 18:52:00,86.4,75.1,30.20,NE,45,0.0,0.0,69,0.00,,,0.00,WUHU216HW,2013-07-17 22:52:00,
2013-07-17 18:57:00,85.7,75.2,30.21,NE,45,0.0,0.0,71,0.00,,,0.00,WUHU216HW,2013-07-17 22:57:00,
2013-07-17 19:02:00,85.0,74.5,30.21,NE,45,0.0,0.0,71,0.00,,,0.00,WUHU216HW,2013-07-17 23:02:00,
2013-07-17 19:07:00,84.2,74.3,30.21,NE,45,0.0,0.0,72,0.00,,,0.00,WUHU216HW,2013-07-17 23:07:00,
2013-07-17 19:12:00,83.9,74.3,30.21,NE,45,0.0,0.0,73,0.00,,,0.00,WUHU216HW,2013-07-17 23:12:00,
2013-07-17 19:17:00,83.5,73.9,30.22,NE,45,0.0,0.0,73,0.00,,,0.00,WUHU216HW,2013-07-17 23:17:00,
2013-07-17 19:22:00,83.0,74.3,30.22,NE,45,0.0,0.0,75,0.00,,,0.00,WUHU216HW,2013-07-17 23:22:00,
2013-07-17 19:27:00,82.4,74.2,30.22,NE,45,0.0,0.0,76,0.00,,,0.00,WUHU216HW,2013-07-17 23:27:00,
2013-07-17 19:32:00,82.3,74.0,30.22,NE,45,0.0,0.0,76,0.00,,,0.00,WUHU216HW,2013-07-17 23:32:00,
2013-07-17 19:37:00,82.1,73.8,30.21,NE,45,0.0,0.0,76,0.00,,,0.00,WUHU216HW,2013-07-17 23:37:00,
2013-07-17 19:42:00,81.9,73.6,30.21,NE,45,0.0,0.0,76,0.00,,,0.00,WUHU216HW,2013-07-17 23:42:00,
2013-07-17 19:47:00,81.5,72.8,30.21,NE,45,0.0,0.0,75,0.00,,,0.00,WUHU216HW,2013-07-17 23:47:00,
2013-07-17 19:52:00,81.2,72.6,30.21,NE,45,0.0,0.0,75,0.00,,,0.00,WUHU216HW,2013-07-17 23:52:00,
2013-07-17 19:57:00,80.8,72.5,30.21,NE,45,0.0,0.0,76,0.00,,,0.00,WUHU216HW,2013-07-17 23:57:00,
2013-07-17 20:02:00,80.5,73.0,30.20,NE,45,0.0,0.0,78,0.00,,,0.00,WUHU216HW,2013-07-18 00:02:00,
2013-07-17 20:07:00,80.3,72.8,30.21,NE,45,0.0,0.0,78,0.00,,,0.00,WUHU216HW,2013-07-18 00:07:00,
2013-07-17 20:12:00,80.3,72.8,30.21,NE,45,0.0,0.0,78,0.00,,,0.00,WUHU216HW,2013-07-18 00:12:00,
2013-07-17 20:17:00,80.1,72.6,30.21,NNE,23,0.0,0.0,78,0.00,,,0.00,WUHU216HW,2013-07-18 00:17:00,
2013-07-17 20:22:00,79.7,72.3,30.21,NNE,23,0.0,0.0,78,0.00,,,0.00,WUHU216HW,2013-07-18 00:22:00,
2013-07-17 20:27:00,79.4,71.9,30.21,NNE,23,0.0,0.0,78,0.00,,,0.00,WUHU216HW,2013-07-18 00:27:00,
2013-07-17 20:32:00,78.8,71.8,30.21,North,0,0.0,0.0,79,0.00,,,0.00,WUHU216HW,2013-07-18 00:32:00,
2013-07-17 20:37:00,78.5,71.5,30.21,North,0,0.0,0.0,79,0.00,,,0.00,WUHU216HW,2013-07-18 00:37:00,
2013-07-17 20:42:00,78.3,71.3,30.21,North,0,0.0,0.0,79,0.00,,,0.00,WUHU216HW,2013-07-18 00:42:00,
2013-07-17 20:47:00,78.1,71.1,30.21,WNW,293,0.4,0.4,79,0.00,,,0.00,WUHU216HW,2013-07-18 00:47:00,
2013-07-17 20:52:00,77.8,71.1,30.21,WNW,293,0.4,0.4,80,0.00,,,0.00,WUHU216HW,2013-07-18 00:52:00,
2013-07-17 20:57:00,77.4,70.7,30.21,WNW,293,0.0,0.4,80,0.00,,,0.00,WUHU216HW,2013-07-18 00:57:00,
2013-07-17 21:02:00,77.4,70.7,30.21,WNW,293,0.4,0.4,80,0.00,,,0.00,WUHU216HW,2013-07-18 01:02:00,
2013-07-17 21:07:00,77.4,70.7,30.21,WSW,248,0.2,0.4,80,0.00,,,0.00,WUHU216HW,2013-07-18 01:07:00,
2013-07-17 21:12:00,77.2,70.6,30.21,WSW,248,0.0,0.4,80,0.00,,,0.00,WUHU216HW,2013-07-18 01:12:00,
2013-07-17 21:17:00,77.0,70.4,30.22,WSW,248,0.0,0.0,80,0.00,,,0.00,WUHU216HW,2013-07-18 01:17:00,
2013-07-17 21:22:00,77.0,70.4,30.22,WSW,248,0.2,0.4,80,0.00,,,0.00,WUHU216HW,2013-07-18 01:22:00,
2013-07-17 21:27:00,76.9,70.6,30.21,WSW,248,0.0,0.4,81,0.00,,,0.00,WUHU216HW,2013-07-18 01:27:00,
2013-07-17 21:32:00,76.5,70.3,30.21,WSW,248,0.0,0.0,81,0.00,,,0.00,WUHU216HW,2013-07-18 01:32:00,
2013-07-17 21:37:00,76.5,70.3,30.22,WSW,248,0.0,0.0,81,0.00,,,0.00,WUHU216HW,2013-07-18 01:37:00,
2013-07-17 21:42:00,76.3,70.1,30.22,SSW,203,0.0,0.0,81,0.00,,,0.00,WUHU216HW,2013-07-18 01:42:00,
2013-07-17 21:47:00,76.1,69.9,30.23,SSW,203,0.9,0.9,81,0.00,,,0.00,WUHU216HW,2013-07-18 01:47:00,
2013-07-17 21:52:00,76.1,69.9,30.23,SW,225,0.4,0.9,81,0.00,,,0.00,WUHU216HW,2013-07-18 01:52:00,
2013-07-17 21:57:00,76.0,69.8,30.23,SW,225,0.0,0.4,81,0.00,,,0.00,WUHU216HW,2013-07-18 01:57:00,
2013-07-17 22:02:00,75.6,69.4,30.23,SW,225,0.0,0.4,81,0.00,,,0.00,WUHU216HW,2013-07-18 02:02:00,
2013-07-17 22:07:00,75.6,69.4,30.23,SW,225,0.2,0.2,81,0.00,,,0.00,WUHU216HW,2013-07-18 02:07:00,
2013-07-17 22:12:00,75.4,69.3,30.23,SE,135,0.0,0.2,81,0.00,,,0.00,WUHU216HW,2013-07-18 02:12:00,
2013-07-17 22:17:00,75.2,69.5,30.24,East,90,0.0,0.0,82,0.00,,,0.00,WUHU216HW,2013-07-18 02:17:00,
2013-07-17 22:22:00,75.2,69.8,30.24,NE,45,1.1,1.1,83,0.00,,,0.00,WUHU216HW,2013-07-18 02:22:00,
2013-07-17 22:27:00,74.9,69.4,30.24,NE,45,0.0,1.1,83,0.00,,,0.00,WUHU216HW,2013-07-18 02:27:00,
2013-07-17 22:32:00,74.7,69.2,30.24,NE,45,0.0,0.4,83,0.00,,,0.00,WUHU216HW,2013-07-18 02:32:00,
2013-07-17 22:37:00,74.5,69.0,30.23,NE,45,0.0,0.2,83,0.00,,,0.00,WUHU216HW,2013-07-18 02:37:00,
2013-07-17 22:42:00,74.5,68.8,30.23,North,0,0.0,0.2,82,0.00,,,0.00,WUHU216HW,2013-07-18 02:42:00,
2013-07-17 22:47:00,74.5,69.0,30.23,North,0,0.0,0.0,83,0.00,,,0.00,WUHU216HW,2013-07-18 02:47:00,
2013-07-17 22:52:00,74.2,68.7,30.23,North,0,0.0,0.0,83,0.00,,,0.00,WUHU216HW,2013-07-18 02:52:00,
2013-07-17 22:57:00,74.0,68.5,30.24,North,0,0.0,0.0,83,0.00,,,0.00,WUHU216HW,2013-07-18 02:57:00,
2013-07-17 23:02:00,73.8,68.3,30.24,North,0,0.0,0.0,83,0.00,,,0.00,WUHU216HW,2013-07-18 03:02:00,
2013-07-17 23:07:00,73.8,68.3,30.24,North,0,0.0,0.0,83,0.00,,,0.00,WUHU216HW,2013-07-18 03:07:00,
2013-07-17 23:12:00,73.8,68.3,30.24,North,0,0.0,0.0,83,0.00,,,0.00,WUHU216HW,2013-07-18 03:12:00,
2013-07-17 23:17:00,73.8,68.3,30.24,North,0,0.0,0.0,83,0.00,,,0.00,WUHU216HW,2013-07-18 03:17:00,
2013-07-17 23:22:00,73.6,68.1,30.24,North,0,0.0,0.0,83,0.00,,,0.00,WUHU216HW,2013-07-18 03:22:00,
2013-07-17 23:27:00,73.4,68.0,30.24,North,0,0.0,0.0,83,0.00,,,0.00,WUHU216HW,2013-07-18 03:27:00,
2013-07-17 23:32:00,73.6,68.1,30.24,North,0,0.0,0.0,83,0.00,,,0.00,WUHU216HW,2013-07-18 03:32:00,
2013-07-17 23:37:00,73.4,68.0,30.23,North,0,0.0,0.0,83,0.00,,,0.00,WUHU216HW,2013-07-18 03:37:00,
2013-07-17 23:42:00,73.4,68.0,30.23,North,0,0.0,0.0,83,0.00,,,0.00,WUHU216HW,2013-07-18 03:42:00,
2013-07-17 23:47:00,73.4,68.3,30.24,North,0,0.0,0.0,84,0.00,,,0.00,WUHU216HW,2013-07-18 03:47:00,
2013-07-17 23:52:00,73.3,68.1,30.23,North,0,0.0,0.0,84,0.00,,,0.00,WUHU216HW,2013-07-18 03:52:00,
2013-07-17 23:57:00,73.3,68.1,30.24,North,0,0.0,0.0,84,0.00,,,0.00,WUHU216HW,2013-07-18 03:57:00,